Retour au catalogue

COSMOS 1275 DEB

ActifPO
NORAD 42115·DEBRIS·🇷🇺 Russia

Lancé Jun 4, 1981 depuis Plesetsk Cosmodrome

Loading…

Prochains Passages (prochaines 24 heures)

TLE

FraisSource: Space-Track

Époque: Sep 14, 2026, 17:30 UTC

1 42115U 81053QB  26257.72929900  .00002330  00000-0  12601-2 0  9990
2 42115  82.6579 164.6624 0062035  14.6418 345.6535 14.11251750655285

Suivez COSMOS 1275 DEB en temps réel avec AllMySat

Download on the App Store